This demonstration page uses our WeatherBlox Daily Observations layout. Learn more.

Left ArrowRight Arrow

39.51506, -84.39828

Hourly Observations for February 1, 2018

Temp ( °F °C ) Dew Point ( °F °C ) Humidity (%) Winds ( mph kmh ) Pressure ( in mb ) Visibility ( mi km ) Precip ( " mm )
12:15 am 00:15 Clear 33 0.4 29 -1.4 88 88 WSW 3 6 29.91 1013 10 16 0.00 0.00
12:35 am 00:35 Clear 33 0.7 29 -1.5 85 85 SW 5 7 29.91 1013 10 16 0.00 0.00
12:55 am 00:55 Clear 34 1 29 -1.8 82 82 SW 6 9 29.91 1013 10 16 0.00 0.00
1:15 am 01:15 Clear 36 2.2 28 -2.3 72 72 SW 3 6 29.91 1013 10 16 0.00 0.00
1:35 am 01:35 Clear 38 3.1 28 -2.4 68 68 Calm 29.88 1012 10 16 0.00 0.00
1:55 am 01:55 Clear 38 3.2 28 -2.1 69 69 Calm 29.88 1012 10 16 0.00 0.00
2:15 am 02:15 Clear 39 3.8 28 -2.2 65 65 Calm 29.88 1012 10 16 0.00 0.00
2:35 am 02:35 Clear 39 4 28 -2.2 64 64 Calm 29.88 1012 10 16 0.00 0.00
2:55 am 02:55 Clear 38 3.6 28 -2.2 66 66 WSW 5 7 29.88 1012 10 16 0.00 0.00
3:15 am 03:15 Clear 39 3.9 29 -1.8 67 67 WSW 6 9 29.88 1012 10 16 0.00 0.00
3:35 am 03:35 Cloudy 40 4.2 30 -1 69 69 SW 7 11 29.88 1012 10 16 0.00 0.00
3:55 am 03:55 Cloudy 41 5.1 30 -1.1 65 65 SW 8 13 29.88 1012 10 16 0.00 0.00
4:15 am 04:15 Partly Cloudy 41 5.2 29 -1.4 63 63 SW 9 15 29.88 1012 10 16 0.00 0.00
4:35 am 04:35 Clear 41 5.1 29 -1.5 63 63 SW 9 15 29.88 1012 10 16 0.00 0.00
4:55 am 04:55 Mostly Cloudy 42 5.3 29 -1.5 62 62 SW 9 15 29.88 1012 10 16 0.00 0.00
5:15 am 05:15 Clear 41 5 29 -1.6 63 63 SW 8 13 29.88 1012 10 16 0.00 0.00
5:35 am 05:35 Clear 40 4.7 29 -1.6 64 64 SW 7 11 29.88 1012 10 16 0.00 0.00
5:55 am 05:55 Partly Cloudy 41 4.9 29 -1.6 63 63 SW 8 13 29.88 1012 10 16 0.00 0.00
6:15 am 06:15 Partly Cloudy 41 5.1 29 -1.6 62 62 SW 9 15 29.88 1012 10 16 0.00 0.00
6:35 am 06:35 Partly Cloudy 41 5.2 29 -1.6 62 62 WSW 8 13 29.88 1012 10 16 0.00 0.00
6:55 am 06:55 Cloudy 42 5.6 29 -1.8 59 59 WSW 8 13 29.88 1012 10 16 0.00 0.00
7:15 am 07:15 Cloudy 42 5.5 29 -1.7 60 60 WSW 8 13 29.91 1013 10 16 0.00 0.00
7:35 am 07:35 Cloudy 43 5.9 29 -1.8 58 58 WSW 6 9 29.91 1013 10 16 0.00 0.00
7:55 am 07:55 Cloudy 42 5.6 29 -1.7 60 60 WSW 8 13 29.91 1013 10 16 0.00 0.00
8:15 am 08:15 Cloudy 42 5.8 29 -1.7 59 59 WSW 7 11 29.91 1013 10 16 0.00 0.00
8:35 am 08:35 Cloudy 42 5.8 29 -1.5 60 60 WSW 5 7 29.91 1013 10 16 0.00 0.00
8:55 am 08:55 Cloudy 42 5.8 29 -1.4 60 60 WSW 6 9 29.91 1013 10 16 0.00 0.00
9:15 am 09:15 Cloudy 43 6.1 30 -1.2 60 60 W 7 11 29.94 1014 10 16 0.00 0.00
9:35 am 09:35 Cloudy 43 6.3 31 -0.7 61 61 W 7 11 29.94 1014 10 16 0.00 0.00
9:55 am 09:55 Cloudy 44 6.5 31 -0.4 62 62 W 8 13 29.94 1014 10 16 0.00 0.00
10:15 am 10:15 Cloudy 44 6.7 31 -0.3 61 61 W 8 13 29.94 1014 10 16 0.00 0.00
10:35 am 10:35 Cloudy 44 6.9 30 -1.1 57 57 W 9 15 29.97 1015 10 16 0.00 0.00
10:55 am 10:55 Cloudy 45 7.2 27 -2.7 50 50 W 10 17 29.97 1015 10 16 0.00 0.00
11:15 am 11:15 Cloudy 45 7.2 26 -3.1 48 48 WSW 10 17 29.97 1015 10 16 0.00 0.00
11:35 am 11:35 Cloudy 45 7.1 24 -4.2 45 45 W 13 20 29.97 1015 10 16 0.00 0.00
11:55 am 11:55 Cloudy 44 6.7 26 -3.6 48 48 WNW 9 15 29.97 1015 10 16 0.00 0.00
12:15 pm 12:15 Cloudy 43 6.3 25 -3.7 49 49 WNW 13 20 30.00 1016 10 16 0.00 0.00
12:35 pm 12:35 Cloudy 43 6.2 25 -3.7 49 49 W 15 24 29.97 1015 10 16 0.00 0.00
12:55 pm 12:55 Cloudy 43 6.3 26 -3.5 50 50 WNW 12 19 29.97 1015 10 16 0.00 0.00
1:15 pm 13:15 Cloudy 44 6.5 26 -3.2 50 50 W 13 20 29.97 1015 10 16 0.00 0.00
1:35 pm 13:35 Cloudy 43 6.1 26 -3.2 52 52 W 13 20 29.97 1015 10 16 0.00 0.00
1:55 pm 13:55 Cloudy 43 6.2 27 -2.7 53 53 W 10 17 29.97 1015 10 16 0.00 0.00
2:15 pm 14:15 Cloudy 42 5.5 27 -2.9 55 55 WNW 14 22 29.97 1015 10 16 0.00 0.00
2:35 pm 14:35 Cloudy with Drizzle 39 4.1 29 -1.6 67 67 WNW 17 28 30.00 1016 10 16 0.00 0.00
2:55 pm 14:55 Cloudy with Drizzle 37 2.8 31 -0.7 78 78 WNW 14 22 30.03 1017 10 16 0.00 0.00
3:15 pm 15:15 Cloudy with Light Rain 35 1.9 32 -0.2 86 86 W 13 20 30.06 1018 7 11 0.00 0.00
3:35 pm 15:35 Cloudy with Light Rain 35 1.5 31 -0.5 87 87 W 14 22 30.06 1018 7 11 0.00 0.00
3:55 pm 15:55 Cloudy with Light Rain 35 1.5 31 -0.4 87 87 W 10 17 30.06 1018 10 16 0.00 0.00
4:15 pm 16:15 Cloudy with Light Rain 35 1.4 31 -0.6 87 87 W 9 15 30.09 1019 7 11 0.00 0.00
4:35 pm 16:35 Cloudy with Light Rain 34 1.2 31 -0.8 87 87 W 13 20 30.06 1018 7 11 0.00 0.00
4:55 pm 16:55 Cloudy with Rain 34 1.1 29 -1.4 84 84 WNW 12 19 30.09 1019 10 16 0.00 0.00
5:15 pm 17:15 Cloudy 34 0.9 26 -3.3 74 74 WNW 13 20 30.09 1019 10 16 0.00 0.00
5:35 pm 17:35 Cloudy 33 0.3 24 -4.7 69 69 NW 14 22 30.09 1019 10 16 0.00 0.00
5:55 pm 17:55 Cloudy 32 0.1 23 -5.1 68 68 NW 13 20 30.12 1020 10 16 0.00 0.00
6:15 pm 18:15 Cloudy 31 -0.3 22 -5.4 69 69 WNW 15 24 30.12 1020 10 16 0.00 0.00
6:35 pm 18:35 Partly Cloudy 31 -0.4 22 -5.5 69 69 WNW 16 26 30.15 1021 10 16 0.00 0.00
6:55 pm 18:55 Mostly Cloudy 31 -0.7 21 -5.9 68 68 NW 15 24 30.15 1021 10 16 0.00 0.00
7:15 pm 19:15 Clear 30 -1.3 20 -6.7 67 67 NW 13 20 30.18 1022 10 16 0.00 0.00
7:35 pm 19:35 Mostly Cloudy 29 -1.6 18 -7.6 64 64 WNW 9 15 30.18 1022 10 16 0.00 0.00
7:55 pm 19:55 Mostly Cloudy 29 -1.8 18 -7.6 65 65 WNW 12 19 30.18 1022 10 16 0.00 0.00
8:15 pm 20:15 Partly Cloudy 28 -2.2 17 -8.1 64 64 NW 14 22 30.21 1023 10 16 0.00 0.00
8:35 pm 20:35 Cloudy 28 -2.2 18 -8 65 65 WNW 13 20 30.21 1023 10 16 0.00 0.00
8:55 pm 20:55 Mostly Cloudy 27 -2.6 16 -8.9 62 62 NW 16 26 30.21 1023 10 16 0.00 0.00
9:15 pm 21:15 Cloudy 27 -2.8 16 -8.9 63 63 WNW 15 24 30.24 1024 10 16 0.00 0.00
9:35 pm 21:35 Cloudy 26 -3.2 15 -9.4 63 63 NW 15 24 30.24 1024 10 16 0.00 0.00
9:55 pm 21:55 Cloudy with Light Snow 26 -3.4 15 -9.3 64 64 N 14 22 30.24 1024 10 16 0.00 0.00
10:15 pm 22:15 Cloudy with Light Snow 23 -5.2 14 -9.9 70 70 N 15 24 30.30 1026 7 11 0.00 0.00
10:35 pm 22:35 Cloudy with Light Snow 22 -5.8 12 -10.9 68 68 N 14 22 30.30 1026 10 16 0.00 0.00
10:55 pm 22:55 Cloudy with Light Snow 20 -6.5 11 -11.9 66 66 N 15 24 30.33 1027 10 16 0.00 0.00
11:15 pm 23:15 Cloudy with Light Snow 20 -6.7 10 -12.2 65 65 N 12 19 30.33 1027 10 16 0.00 0.00
11:35 pm 23:35 Cloudy 19 -7.2 8 -13.1 63 63 NNW 14 22 30.36 1028 10 16 0.00 0.00
11:55 pm 23:55 Cloudy 19 -7.5 7 -13.8 61 61 N 20 31 30.36 1028 10 16 0.00 0.00

Powered by AerisWeather